Weather in Staroye Akshino

Russia / Republic of Mordovia     54°17′26″N   44°42′55″E
temp.,
°C
wind,
m/s
gust,
m/s
humid.,
%
clouds,
%
prec.,
mm/h
press.,
hPa
HPBL,
m
28 september, tue
tue2800:00+4ne61096100 0.3 1020692
03:00+4ne6987100 0.3 1021763
06:00+3ne61087100 0.0 1024723
09:00+4ne61083100 0.1 1025825
12:00+7ne686253 0.0 10261241
15:00+8ne675121 0.0 10271298
18:00+5nne48645 0.0 1029159
21:00+3nne377379 0.0 1030134
29 september, wed
wed2900:00+3nne367696 0.0 1031117
03:00+2nne35817 0.0 103191
06:00+1nne358445 0.0 103290
09:00+5nne466475 0.0 1032442
12:00+9nne445095 0.0 10321167
15:00+9n454635 0.0 10311346
18:00+6nne336165 0.0 103222
21:00+4nne226716 0.0 103211
30 september, thu
thu3000:00+3nne22715 0.0 103310
03:00+2n22765 0.0 103319
06:00+2n228168 0.0 103413
09:00+6n2268100 0.0 1034193
12:00+9nw23577 0.0 1034777
15:00+11nw345596 0.0 10331257
18:00+7nw2277100 0.0 103323
21:00+6wnw338713 0.0 103334
1 october, fri
fri100:00+7w2484100 0.0 1033114
03:00+7wnw368794 0.0 1033188
06:00+7wnw3790100 0.1 1033221
09:00+9nw478475 0.1 1033323
12:00+13nnw456899 0.0 10331029
15:00+13nw4564100 0.0 1032326
18:00+11wnw3576100 0.0 1032129
21:00+11wnw2377100 0.0 103372
2 october, sat
sat200:00+11nw2378100 0.0 103367
03:00+11nw2379100 0.0 103374
06:00+10nw2382100 0.0 103380
09:00+11nw2378100 0.0 1034224
12:00+13nw226899 0.0 1034582
15:00+15w226359 0.0 1033785
18:00+12wsw237577 0.0 103440
21:00+12w2273100 0.0 103434